Naples, FL

9:07 AM EST on January 17, 2018 (GMT -0500)
Naples Municipal

Weather History for KAPF - April, 2012

Change the Weather History Date:

Saturday, April 28, 2012

  Actual Average Record
Temperature  
Mean Temperature 78 °F 75 °F  
Max Temperature 87 °F 85 °F 93 °F (2017)
Min Temperature 69 °F 65 °F 49 °F (1978)
Degree Days  
Heating Degree Days 0 0  
Month to date heating degree days 0 0  
Since 1 July heating degree days 121 256  
Cooling Degree Days 13 10  
Month to date cooling degree days 252 231  
Year to date cooling degree days 794 598  
Growing Degree Days 28 (Base 50)    
Moisture  
Dew Point 69 °F    
Average Humidity 75    
Maximum Humidity 97    
Minimum Humidity 53    
Precipitation  
Precipitation 0.67 in 0.06 in 0.80 in (1995)
Month to date precipitation 2.33 2.24  
Year to date precipitation 6.71 8.57  
Snow  
Snow 0.00 in - - ()
Month to date snowfall 0.0  
Since 1 July snowfall 0.0  
Snow Depth 0.00 in    
Sea Level Pressure  
Sea Level Pressure 30.05 in    
Wind  
Wind Speed 7 mph (East)    
Max Wind Speed 24 mph    
Max Gust Speed 29 mph    
Visibility 9 miles    
Events Rain , Thunderstorm    
T = Trace of Precipitation, MM = Missing Value Source: NWS Daily Summary

Daily Weather History Graph

Daily Weather History Graph

Search for Another Location

Airport or City:

Trip Planner

Search our weather history database for the weather conditions in past years. The results will help you decide how hot, cold, wet, or windy it might be!

Date:

Astronomy

Apr. 28, 2012 Rise Set
Actual Time 6:51 AM EDT 7:57 PM EDT
Civil Twilight 6:27 AM EDT 8:21 PM EDT
Nautical Twilight 5:59 AM EDT 8:50 PM EDT
Astronomical Twilight 5:29 AM EDT 9:19 PM EDT
Moon 12:32 PM EDT (4/28) 1:17 AM EDT (4/28)
Length of Visible Light 13h 54m
Length of Day
13h 05m
Waxing Crescent, 42% of the Moon is Illuminated
Apr 28
Waxing Crescent
Apr 29
First Quarter
May 5
Full
May 12
Last Quarter
May 20
New

Hourly Weather History & Observations

Time (EDT) Temp. Heat Index Dew Point Humidity Pressure Visibility Wind Dir Wind Speed Gust Speed Precip Events Conditions
12:53 AM 75.9 °F - 66.9 °F 74% 30.08 in 10.0 mi East 5.8 mph - N/A   Mostly Cloudy
1:53 AM 73.0 °F - 66.9 °F 81% 30.07 in 10.0 mi ENE 5.8 mph - N/A   Partly Cloudy
2:53 AM 71.6 °F - 66.2 °F 83% 30.05 in 10.0 mi NE 4.6 mph - N/A   Clear
3:53 AM 70.0 °F - 66.9 °F 90% 30.03 in 9.0 mi NE 5.8 mph - N/A   Clear
4:53 AM 69.1 °F - 66.9 °F 93% 30.03 in 8.0 mi ENE 6.9 mph - N/A   Partly Cloudy
5:53 AM 69.1 °F - 66.9 °F 93% 30.04 in 8.0 mi ENE 5.8 mph - N/A   Clear
6:53 AM 70.0 °F - 68.0 °F 93% 30.06 in 8.0 mi East 6.9 mph - N/A   Scattered Clouds
7:53 AM 71.1 °F - 69.1 °F 93% 30.06 in 6.0 mi Calm Calm - N/A   Scattered Clouds
8:40 AM 71.6 °F - 69.8 °F 94% 30.07 in 7.0 mi ENE 5.8 mph - N/A   Partly Cloudy
8:53 AM 73.0 °F - 70.0 °F 90% 30.07 in 7.0 mi ENE 5.8 mph - N/A   Clear
9:26 AM 75.2 °F - 69.8 °F 83% 30.07 in 7.0 mi NE 6.9 mph - N/A   Mostly Cloudy
9:53 AM 77.0 °F - 71.1 °F 82% 30.07 in 8.0 mi ENE 9.2 mph - N/A   Partly Cloudy
10:53 AM 81.0 °F 84.9 °F 71.1 °F 72% 30.07 in 10.0 mi ESE 8.1 mph - N/A   Partly Cloudy
11:21 AM 82.4 °F 87.2 °F 71.6 °F 70% 30.08 in 10.0 mi ESE 8.1 mph - N/A   Mostly Cloudy
11:53 AM 84.0 °F 89.0 °F 71.1 °F 65% 30.06 in 10.0 mi East 11.5 mph - N/A   Scattered Clouds
12:53 PM 82.9 °F 85.8 °F 68.0 °F 60% 30.05 in 10.0 mi East 10.4 mph - N/A   Mostly Cloudy
1:53 PM 87.1 °F 90.6 °F 68.0 °F 53% 30.03 in 10.0 mi East 9.2 mph - N/A   Scattered Clouds
2:53 PM 82.0 °F 85.9 °F 70.0 °F 67% 30.02 in 10.0 mi SSW 3.5 mph - N/A   Mostly Cloudy
3:05 PM 75.2 °F - 69.8 °F 83% 30.04 in 2.5 mi SSE 18.4 mph 28.8 mph 0.00 in Rain Heavy Rain
3:07 PM 73.4 °F - 71.6 °F 94% 30.04 in 1.5 mi SSE 17.3 mph 28.8 mph 0.00 in Rain , Thunderstorm Heavy Thunderstorms and Rain
3:15 PM 73.4 °F - 69.8 °F 88% 30.05 in 7.0 mi South 18.4 mph 28.8 mph N/A Rain , Thunderstorm Light Thunderstorms and Rain
3:22 PM 73.4 °F - 71.6 °F 94% 30.06 in 7.0 mi South 12.7 mph 21.9 mph N/A Rain , Thunderstorm Light Thunderstorms and Rain
3:53 PM 72.0 °F - 69.1 °F 91% 30.05 in 10.0 mi SSE 9.2 mph - N/A   Overcast
4:53 PM 73.9 °F - 71.1 °F 91% 30.01 in 10.0 mi SE 6.9 mph - N/A Rain Light Rain
5:53 PM 77.0 °F - 72.0 °F 84% 30.02 in 10.0 mi ESE 9.2 mph - N/A   Partly Cloudy
6:53 PM 78.1 °F - 72.0 °F 81% 30.02 in 10.0 mi SE 8.1 mph - N/A   Partly Cloudy
7:53 PM 77.0 °F - 68.0 °F 74% 30.03 in 10.0 mi East 11.5 mph - N/A   Partly Cloudy
8:53 PM 75.9 °F - 68.0 °F 76% 30.06 in 10.0 mi East 8.1 mph - N/A   Clear
9:53 PM 75.0 °F - 68.0 °F 79% 30.06 in 10.0 mi East 5.8 mph - N/A   Clear
10:53 PM 73.0 °F - 69.1 °F 87% 30.08 in 10.0 mi ENE 4.6 mph - N/A   Clear
11:53 PM 73.0 °F - 69.1 °F 87% 30.08 in 10.0 mi East 6.9 mph - N/A   Clear